Weather History for Cincinnati, OH

Change the Weather History Date:

Saturday, August 17, 2013

  Actual Average Record
Temperature  
Mean Temperature 68 °F -  
Max Temperature 82 °F 85 °F 103 °F (1988)
Min Temperature 55 °F 64 °F 51 °F (1958)
Cooling Degree Days 4    
Growing Degree Days 18 (Base 50)    
Moisture  
Dew Point 59 °F    
Average Humidity 74    
Maximum Humidity 100    
Minimum Humidity 44    
Precipitation  
Precipitation 0.00 in - - ()
Sea Level Pressure  
Sea Level Pressure 30.16 in    
Wind  
Wind Speed 2 mph (NE)    
Max Wind Speed 10 mph    
Max Gust Speed -    
Visibility 10 miles    
Events      
Averages and records for this station are not official NWS values.
T = Trace of Precipitation, MM = Missing Value Source: NWS Daily Summary

Daily Weather History Graph

Daily Weather History Graph

Search for Another Location

Airport:

Trip Planner

Search our weather history database for the weather conditions in past years. The results will help you decide how hot, cold, wet, or windy it might be!

Date:

Astronomy

Aug. 17, 2013 Rise Set
Actual Time 6:52 AM EDT 8:29 PM EDT
Civil Twilight 6:24 AM EDT 8:58 PM EDT
Nautical Twilight 5:50 AM EDT 9:32 PM EDT
Astronomical Twilight 5:13 AM EDT 10:08 PM EDT
Moon 5:43 PM EDT (8/17) 2:56 AM EDT (8/17)
Length of Visible Light 14h 33m
Length of Day
13h 36m
Waxing Gibbous, 84% of the Moon is Illuminated
Aug 17
Waxing Gibbous
Aug 20
Full
Aug 28
Last Quarter
Sep 5
New
Sep 12
First Quarter

Hourly Weather History & Observations

Time (EDT) Temp. Heat Index Dew Point Humidity Pressure Visibility Wind Dir Wind Speed Gust Speed Precip Events Conditions
12:53 AM 57.9 °F - 57.0 °F 97% 30.17 in 10.0 mi Calm Calm - N/A   Clear
1:53 AM 57.9 °F - 57.0 °F 97% 30.17 in 10.0 mi Calm Calm - N/A   Clear
2:53 AM 59.0 °F - 57.9 °F 96% 30.17 in 9.0 mi Calm Calm - N/A   Clear
3:53 AM 59.0 °F - 57.0 °F 93% 30.17 in 10.0 mi Calm Calm - N/A   Clear
4:53 AM 57.9 °F - 55.9 °F 93% 30.17 in 10.0 mi Calm Calm - N/A   Clear
5:53 AM 55.9 °F - 55.9 °F 100% 30.17 in 8.0 mi Calm Calm - N/A   Clear
6:53 AM 57.9 °F - 55.9 °F 93% 30.18 in 10.0 mi Calm Calm - N/A   Clear
7:53 AM 59.0 °F - 57.0 °F 93% 30.18 in 9.0 mi Calm Calm - N/A   Clear
8:53 AM 63.0 °F - 57.0 °F 81% 30.19 in 10.0 mi NNE 3.5 mph - N/A   Clear
9:53 AM 66.9 °F - 57.9 °F 73% 30.18 in 10.0 mi North 3.5 mph - N/A   Clear
10:53 AM 72.0 °F - 60.1 °F 66% 30.19 in 10.0 mi NE 3.5 mph - N/A   Clear
11:53 AM 75.0 °F - 61.0 °F 62% 30.19 in 10.0 mi Variable 4.6 mph - N/A   Clear
12:53 PM 79.0 °F - 62.1 °F 56% 30.17 in 10.0 mi NE 10.4 mph - N/A   Clear
1:53 PM 80.1 °F 81.1 °F 61.0 °F 52% 30.15 in 10.0 mi Variable 5.8 mph - N/A   Scattered Clouds
2:53 PM 81.0 °F 81.6 °F 60.1 °F 49% 30.13 in 10.0 mi ENE 4.6 mph - N/A   Partly Cloudy
3:53 PM 82.0 °F 82.4 °F 60.1 °F 47% 30.12 in 10.0 mi NNE 8.1 mph - N/A   Clear
4:53 PM 82.9 °F 82.8 °F 59.0 °F 44% 30.12 in 10.0 mi NE 6.9 mph - N/A   Clear
5:53 PM 81.0 °F 81.1 °F 57.9 °F 45% 30.12 in 10.0 mi ENE 8.1 mph - N/A   Clear
6:53 PM 80.1 °F 80.9 °F 60.1 °F 50% 30.12 in 10.0 mi ENE 9.2 mph - N/A   Clear
7:53 PM 77.0 °F - 61.0 °F 58% 30.13 in 10.0 mi East 3.5 mph - N/A   Clear
8:53 PM 72.0 °F - 62.1 °F 71% 30.14 in 10.0 mi East 3.5 mph - N/A   Clear
9:53 PM 68.0 °F - 63.0 °F 84% 30.14 in 10.0 mi Calm Calm - N/A   Clear
10:53 PM 66.0 °F - 63.0 °F 90% 30.14 in 10.0 mi Calm Calm - N/A   Clear
11:53 PM 63.0 °F - 62.1 °F 97% 30.15 in 10.0 mi Calm Calm - N/A   Clear